Logansport, IN

3:06 PM EST on January 20, 2017 (GMT -0500)
Logansport Municipal

Weather History for KGGP - January, 2013

Change the Weather History Date:

Tuesday, January 22, 2013

  Actual Average Record
Temperature  
Mean Temperature 8 °F -  
Max Temperature 14 °F 34 °F 32 °F (2015)
Min Temperature 3 °F 15 °F -7 °F (2014)
Degree Days  
Heating Degree Days 56    
Moisture  
Dew Point -2 °F    
Average Humidity 62    
Maximum Humidity 85    
Minimum Humidity 45    
Precipitation  
Precipitation 0.00 in - - ()
Sea Level Pressure  
Sea Level Pressure 30.32 in    
Wind  
Wind Speed 11 mph (West)    
Max Wind Speed 16 mph    
Max Gust Speed 22 mph    
Visibility 10 miles    
Events      
Averages and records for this station are not official NWS values.
T = Trace of Precipitation, MM = Missing Value Source: NWS Daily Summary

Daily Weather History Graph

Daily Weather History Graph

Search for Another Location

Airport or City:

Trip Planner

Search our weather history database for the weather conditions in past years. The results will help you decide how hot, cold, wet, or windy it might be!

Date:

Astronomy

Jan. 22, 2013 Rise Set
Actual Time 8:03 AM EST 5:51 PM EST
Civil Twilight 7:33 AM EST 6:20 PM EST
Nautical Twilight 7:00 AM EST 6:54 PM EST
Astronomical Twilight 6:27 AM EST 7:26 PM EST
Moon 2:13 PM EST (1/22) 4:24 AM EST (1/22)
Length of Visible Light 10h 47m
Length of Day
9h 47m
Waxing Gibbous, 82% of the Moon is Illuminated
Jan 22
Waxing Gibbous
Jan 26
Full
Feb 3
Last Quarter
Feb 10
New
Feb 17
First Quarter

Hourly Weather History & Observations

Time (EST) Temp. Windchill Dew Point Humidity Pressure Visibility Wind Dir Wind Speed Gust Speed Precip Events Conditions
12:15 AM 8.6 °F -8.3 °F -4.0 °F 57% 30.26 in 10.0 mi West 15.0 mph 20.7 mph N/A   Scattered Clouds
12:35 AM 6.8 °F -7.8 °F -4.0 °F 61% 30.26 in 10.0 mi WNW 10.4 mph 17.3 mph N/A   Scattered Clouds
12:55 AM 6.8 °F -11.3 °F -0.4 °F 72% 30.26 in 10.0 mi WNW 16.1 mph 20.7 mph N/A   Mostly Cloudy
1:15 AM 5.0 °F -11.6 °F -0.4 °F 78% 30.26 in 10.0 mi West 12.7 mph 18.4 mph N/A   Mostly Cloudy
1:35 AM 5.0 °F -11.6 °F -0.4 °F 78% 30.26 in 10.0 mi West 12.7 mph 18.4 mph N/A   Mostly Cloudy
1:55 AM 5.0 °F -10.8 °F -0.4 °F 78% 30.26 in 10.0 mi West 11.5 mph 19.6 mph N/A   Scattered Clouds
2:15 AM 5.0 °F -11.6 °F -0.4 °F 78% 30.26 in 10.0 mi West 12.7 mph 17.3 mph N/A   Scattered Clouds
2:35 AM 5.0 °F -13.0 °F -0.4 °F 78% 30.27 in 10.0 mi West 15.0 mph 19.6 mph N/A   Scattered Clouds
2:55 AM 5.0 °F -10.0 °F -0.4 °F 78% 30.28 in 10.0 mi West 10.4 mph 20.7 mph N/A   Scattered Clouds
3:15 AM 5.0 °F -10.0 °F -0.4 °F 78% 30.28 in 10.0 mi West 10.4 mph - N/A   Scattered Clouds
3:35 AM 5.0 °F -11.6 °F -0.4 °F 78% 30.28 in 10.0 mi West 12.7 mph 17.3 mph N/A   Scattered Clouds
3:55 AM 5.0 °F -10.8 °F -0.4 °F 78% 30.28 in 10.0 mi West 11.5 mph - N/A   Scattered Clouds
4:15 AM 5.0 °F -10.8 °F -0.4 °F 78% 30.28 in 10.0 mi West 11.5 mph - N/A   Scattered Clouds
4:35 AM 3.2 °F -12.2 °F -0.4 °F 85% 30.29 in 10.0 mi West 10.4 mph - N/A   Clear
4:55 AM 3.2 °F -13.1 °F -0.4 °F 85% 30.29 in 10.0 mi West 11.5 mph - N/A   Clear
5:15 AM 3.2 °F -13.1 °F -2.2 °F 78% 30.30 in 10.0 mi West 11.5 mph - N/A   Clear
5:35 AM 3.2 °F -12.2 °F -2.2 °F 78% 30.30 in 10.0 mi West 10.4 mph 16.1 mph N/A   Clear
5:55 AM 3.2 °F -13.1 °F -2.2 °F 78% 30.31 in 10.0 mi West 11.5 mph 16.1 mph N/A   Clear
6:15 AM 3.2 °F -12.2 °F -2.2 °F 78% 30.31 in 10.0 mi West 10.4 mph - N/A   Clear
6:35 AM 3.2 °F -11.3 °F -2.2 °F 78% 30.31 in 10.0 mi West 9.2 mph - N/A   Clear
6:55 AM 3.2 °F -12.2 °F -2.2 °F 78% 30.32 in 10.0 mi West 10.4 mph - N/A   Clear
7:15 AM 3.2 °F -10.3 °F -2.2 °F 78% 30.32 in 10.0 mi West 8.1 mph - N/A   Clear
7:35 AM 3.2 °F -10.3 °F -2.2 °F 78% 30.33 in 10.0 mi West 8.1 mph - N/A   Clear
7:55 AM 3.2 °F -12.2 °F -2.2 °F 78% 30.33 in 10.0 mi West 10.4 mph - N/A   Clear
8:15 AM 3.2 °F -10.3 °F -0.4 °F 85% 30.33 in 10.0 mi West 8.1 mph - N/A   Clear
8:35 AM 3.2 °F -12.2 °F -0.4 °F 85% 30.34 in 10.0 mi West 10.4 mph - N/A   Clear
8:55 AM 5.0 °F -10.8 °F -2.2 °F 72% 30.34 in 10.0 mi WNW 11.5 mph - N/A   Clear
9:15 AM 5.0 °F -10.0 °F -0.4 °F 78% 30.35 in 10.0 mi West 10.4 mph - N/A   Scattered Clouds
9:35 AM 5.0 °F -9.1 °F -2.2 °F 72% 30.36 in 10.0 mi West 9.2 mph - N/A   Scattered Clouds
9:55 AM 5.0 °F -8.1 °F -2.2 °F 72% 30.36 in 10.0 mi WNW 8.1 mph - N/A   Scattered Clouds
10:15 AM 6.8 °F -5.9 °F -0.4 °F 72% 30.37 in 10.0 mi WNW 8.1 mph - N/A   Scattered Clouds
10:55 AM 8.6 °F -5.5 °F -0.4 °F 67% 30.38 in 10.0 mi WNW 10.4 mph - N/A   Scattered Clouds
11:15 AM 10.4 °F -1.5 °F -4.0 °F 52% 30.38 in 10.0 mi WNW 8.1 mph - N/A   Scattered Clouds
11:35 AM 8.6 °F -7.0 °F -4.0 °F 57% 30.38 in 10.0 mi West 12.7 mph - N/A   Scattered Clouds
11:55 AM 10.4 °F -3.3 °F -4.0 °F 52% 30.37 in 10.0 mi West 10.4 mph - N/A   Scattered Clouds
12:15 PM 8.6 °F -4.7 °F -4.0 °F 57% 30.36 in 10.0 mi West 9.2 mph 12.7 mph N/A   Scattered Clouds
12:35 PM 10.4 °F -2.4 °F -4.0 °F 52% 30.35 in 10.0 mi WNW 9.2 mph - N/A   Mostly Cloudy
12:55 PM 10.4 °F -2.4 °F -4.0 °F 52% 30.34 in 10.0 mi WNW 9.2 mph - N/A   Scattered Clouds
1:15 PM 12.2 °F -2.5 °F -2.2 °F 53% 30.33 in 10.0 mi West 12.7 mph 16.1 mph N/A   Scattered Clouds
1:35 PM 12.2 °F 0.7 °F -4.0 °F 48% 30.32 in 10.0 mi West 8.1 mph - N/A   Mostly Cloudy
1:55 PM 12.2 °F -2.5 °F -4.0 °F 48% 30.33 in 10.0 mi West 12.7 mph - N/A   Scattered Clouds
2:15 PM 12.2 °F -1.8 °F -4.0 °F 48% 30.33 in 10.0 mi West 11.5 mph 17.3 mph N/A   Scattered Clouds
2:35 PM 14.0 °F -0.8 °F -4.0 °F 45% 30.32 in 10.0 mi WSW 13.8 mph 18.4 mph N/A   Mostly Cloudy
2:55 PM 12.2 °F -1.8 °F -4.0 °F 48% 30.32 in 10.0 mi West 11.5 mph 19.6 mph N/A   Scattered Clouds
3:15 PM 14.0 °F -0.2 °F -4.0 °F 45% 30.32 in 10.0 mi West 12.7 mph 19.6 mph N/A   Clear
3:35 PM 14.0 °F 0.5 °F -4.0 °F 45% 30.33 in 10.0 mi West 11.5 mph 18.4 mph N/A   Clear
3:55 PM 14.0 °F 0.5 °F -4.0 °F 45% 30.32 in 10.0 mi West 11.5 mph 21.9 mph N/A   Scattered Clouds
4:15 PM 14.0 °F 0.5 °F -4.0 °F 45% 30.33 in 10.0 mi West 11.5 mph 18.4 mph N/A   Scattered Clouds
4:35 PM 14.0 °F -1.4 °F -4.0 °F 45% 30.32 in 10.0 mi West 15.0 mph 20.7 mph N/A   Scattered Clouds
4:55 PM 14.0 °F -2.0 °F -4.0 °F 45% 30.32 in 10.0 mi WSW 16.1 mph 20.7 mph N/A   Scattered Clouds
5:15 PM 12.2 °F -1.0 °F -4.0 °F 48% 30.32 in 10.0 mi West 10.4 mph - N/A   Clear
5:35 PM 12.2 °F -1.0 °F -4.0 °F 48% 30.32 in 10.0 mi West 10.4 mph - N/A   Clear
5:55 PM 12.2 °F -0.2 °F -4.0 °F 48% 30.32 in 10.0 mi West 9.2 mph - N/A   Clear
6:15 PM 12.2 °F 1.7 °F -4.0 °F 48% 30.32 in 10.0 mi West 6.9 mph - N/A   Clear
6:35 PM 12.2 °F -0.2 °F -4.0 °F 48% 30.32 in 10.0 mi WNW 9.2 mph - N/A   Clear
6:55 PM 12.2 °F -0.2 °F -4.0 °F 48% 30.32 in 10.0 mi West 9.2 mph - N/A   Clear
7:15 PM 12.2 °F -0.2 °F -4.0 °F 48% 30.33 in 10.0 mi West 9.2 mph - N/A   Clear
7:35 PM 12.2 °F -0.2 °F -4.0 °F 48% 30.32 in 10.0 mi West 9.2 mph - N/A   Clear
7:55 PM 12.2 °F 0.7 °F -4.0 °F 48% 30.31 in 10.0 mi West 8.1 mph - N/A   Scattered Clouds
8:15 PM 12.2 °F -1.0 °F -4.0 °F 48% 30.32 in 10.0 mi West 10.4 mph - N/A   Scattered Clouds
8:35 PM 12.2 °F -0.2 °F -4.0 °F 48% 30.32 in 10.0 mi West 9.2 mph - N/A   Scattered Clouds
8:55 PM 12.2 °F 1.7 °F -2.2 °F 53% 30.32 in 10.0 mi West 6.9 mph - N/A   Scattered Clouds
9:15 PM 12.2 °F 0.7 °F -4.0 °F 48% 30.32 in 10.0 mi West 8.1 mph - N/A   Scattered Clouds
9:35 PM 12.2 °F -0.2 °F -4.0 °F 48% 30.32 in 10.0 mi West 9.2 mph - N/A   Clear
9:55 PM 12.2 °F 1.7 °F -2.2 °F 53% 30.33 in 10.0 mi West 6.9 mph - N/A   Clear
10:15 PM 12.2 °F 0.7 °F -0.4 °F 57% 30.33 in 10.0 mi West 8.1 mph - N/A   Clear
10:35 PM 12.2 °F 1.7 °F -0.4 °F 57% 30.33 in 10.0 mi West 6.9 mph - N/A   Clear
10:55 PM 10.4 °F -2.4 °F -2.2 °F 57% 30.33 in 10.0 mi West 9.2 mph - N/A   Clear
11:15 PM 10.4 °F 0.8 °F -0.4 °F 62% 30.34 in 10.0 mi West 5.8 mph - N/A   Clear
11:35 PM 10.4 °F -1.5 °F -0.4 °F 62% 30.34 in 10.0 mi West 8.1 mph - N/A   Scattered Clouds
11:55 PM 12.2 °F 0.7 °F -0.4 °F 57% 30.33 in 10.0 mi West 8.1 mph - N/A   Scattered Clouds